Location: Unspecified
(42.3650°N, 71.1030°W)
Time: 17:15:19
(UTC+00:00)

Tiros 1 - Pass Details

Date: 28 June 2024
Orbit: 624 x 656 km, 48.4° (Epoch: 13 July)

Event Time Altitude Azimuth Distance (km) Brightness Sun altitude
Rises 09:20:45 0° 289° (WNW) 2,918 10.1 0.8°
Reaches altitude 10° 09:23:29 10° 274° (W) 2,012 9.2 1.2°
Maximum altitude 09:27:01 22° 224° (SW) 1,394 8.4 1.8°
Drops below altitude 10° 09:30:34 10° 174° (S) 2,019 9.5 2.4°
Sets 09:33:19 0° 159° (SSE) 2,931 10.4 2.8°
